Content
SEND FEEDBACK

Daily
Averages
Monthly
Summary
Canada

VANCOUVER, BRITISH COLUMBIA


Home > North America > Canada > British Columbia
Elevation: 7 feet     Latitude: 49 11N     Longitude: 123 10W

WEATHER
 
SELECT A DAY
Number of Records: 254,138;   Date Range: 5/15/97 - 11/26/14
 
SHARE

PRINT THIS DATA

[ ← Previous Day ]
WEATHER ALMANAC - MARCH 29, 2014
[ Next Day → ]
[ °C ]   °F
Weather ElementAverageHighLow
Temperature48.5 °F51.8 °F (4:35 pm)46.4 °F (12:35 am)
Dewpoint43.3 °F46.4 °F (12:35 am)41 °F (5:15 am)
Humidity82.4 %100 % (12:35 am)71 % (11:35 am)
Barometer29.67 in29.75 in (11:35 pm)29.61 in (4:35 am)
Wind Speed8.9 mph16.1 mph (7:15 am)
Wind Gust24.2 mph (9:55 am)
Weather ElementAverage
Visibility9.5 mi
Wind DirectionS (175.1 °)

Weather ElementTotal
Precipitation---
Heating Degree Days15.9 (Base 65)
Averaged from 71 records on March 29, 2014
WEATHER CONDITIONS BREAKOUT
WIND DIRECTION BREAKOUT
WEATHER BY HOUR - MARCH 29, 2014
[ °C ]   °F
Local TimeTemperatureDewpointHumidityBarometerVisibilityWind DirectionWind SpeedGust SpeedPrecipitationEventsConditions
12:35 AM46.4 °F46.4 °F100 %29.66 in10.0 miSouth (190°)6.9 mphPartly Cloudy
12:55 AM48.2 °F46.4 °F93 %29.66 in9.0 miSouth (180°)4.6 mphScattered Clouds
1:15 AM48.2 °F46.4 °F93 %29.66 in10.0 miSouth (180°)5.8 mphPartly Cloudy
1:35 AM48.2 °F44.6 °F87 %29.66 in10.0 miSouth (180°)5.8 mphPartly Cloudy
1:55 AM48.2 °F44.6 °F87 %29.65 in10.0 miSouth (180°)4.6 mphClear
2:15 AM48.2 °F44.6 °F87 %29.65 in10.0 miSouth (180°)6.9 mphPartly Cloudy
2:35 AM46.4 °F44.6 °F93 %29.65 in10.0 miSouth (190°)5.8 mphPartly Cloudy
2:55 AM48.2 °F44.6 °F87 %29.65 in10.0 miSouth (190°)8.1 mphPartly Cloudy
3:15 AM48.2 °F44.6 °F87 %29.64 in10.0 miSouth (170°)6.9 mphPartly Cloudy
3:35 AM48.2 °F44.6 °F87 %29.64 in9.0 miSouth (180°)8.1 mphClear
3:55 AM48.2 °F44.6 °F87 %29.63 in10.0 miSouth (180°)8.1 mph19.6 mphClear
4:15 AM48.2 °F44.6 °F87 %29.62 in10.0 miSouth (180°)10.4 mph18.4 mphClear
4:35 AM48.2 °F42.8 °F82 %29.61 in10.0 miSouth (170°)10.4 mph20.7 mphPartly Cloudy
4:55 AM48.2 °F42.8 °F82 %29.62 in10.0 miSouth (180°)12.7 mph19.6 mphPartly Cloudy
5:15 AM48.2 °F41.0 °F76 %29.62 in10.0 miSouth (180°)10.4 mph17.3 mphScattered Clouds
5:35 AM46.4 °F41.0 °F81 %29.62 in10.0 miSouth (180°)9.2 mph17.3 mphPartly Cloudy
5:55 AM46.4 °F41.0 °F81 %29.62 in10.0 miSouth (190°)10.4 mphClear
6:15 AM48.2 °F42.8 °F82 %29.62 in10.0 miSouth (190°)13.8 mph21.9 mphPartly Cloudy
6:35 AM48.2 °F42.8 °F82 %29.62 in10.0 miSouth (180°)11.5 mph17.3 mphMostly Cloudy
6:55 AM48.2 °F42.8 °F82 %29.61 in10.0 miSouth (180°)10.4 mph18.4 mphScattered Clouds
7:15 AM48.2 °F41.0 °F76 %29.62 in10.0 miSouth (190°)16.1 mph20.7 mphScattered Clouds
7:35 AM48.2 °F42.8 °F82 %29.62 in10.0 miSouth (180°)10.4 mph18.4 mphMostly Cloudy
7:55 AM48.2 °F42.8 °F82 %29.61 in9.0 miSouth (180°)8.1 mphMostly Cloudy
8:15 AM48.2 °F42.8 °F82 %29.62 in9.0 miSouth (180°)11.5 mph17.3 mphMostly Cloudy
8:35 AM48.2 °F41.0 °F76 %29.62 in10.0 miSouth (170°)11.5 mph21.9 mphMostly Cloudy
8:55 AM48.2 °F41.0 °F76 %29.63 in10.0 miSouth (180°)11.5 mph19.6 mphPartly Cloudy
9:15 AM48.2 °F42.8 °F82 %29.64 in7.0 miSouth (170°)9.2 mphRainLight Rain
9:35 AM46.4 °F44.6 °F93 %29.64 in3.0 miSouth (170°)6.9 mph17.3 mphRainLight Rain
9:55 AM46.4 °F42.8 °F87 %29.64 in8.0 miSouth (180°)13.8 mph24.2 mphMostly Cloudy
10:15 AM48.2 °F41.0 °F76 %29.65 in9.0 miSouth (180°)11.5 mph20.7 mphScattered Clouds
10:35 AM48.2 °F42.8 °F82 %29.65 in10.0 miSouth (180°)12.7 mph18.4 mphClear
10:55 AM50.0 °F42.8 °F76 %29.66 in10.0 miSouth (180°)11.5 mph21.9 mphPartly Cloudy
11:15 AM50.0 °F42.8 °F76 %29.67 in9.0 miSouth (180°)13.8 mph23.0 mphClear
11:35 AM50.0 °F41.0 °F71 %29.68 in10.0 miSouth (180°)10.4 mph23.0 mphPartly Cloudy
11:55 AM50.0 °F42.8 °F76 %29.68 in10.0 miSouth (190°)13.8 mph20.7 mphPartly Cloudy
12:15 PM50.0 °F42.8 °F76 %29.69 in10.0 miSouth (180°)6.9 mph18.4 mphPartly Cloudy
12:35 PM48.2 °F42.8 °F82 %29.69 in10.0 miSouth (180°)11.5 mph19.6 mphPartly Cloudy
12:55 PM48.2 °F41.0 °F76 %29.69 in9.0 miSouth (180°)9.2 mph19.6 mphPartly Cloudy
1:15 PM50.0 °F42.8 °F76 %29.69 in9.0 miSouth (180°)10.4 mph16.1 mphClear
1:35 PM48.2 °F42.8 °F82 %29.69 in10.0 miSouth (180°)8.1 mph19.6 mphScattered Clouds
1:55 PM50.0 °F44.6 °F82 %29.69 in10.0 miSouth (180°)10.4 mph19.6 mphScattered Clouds
2:15 PM50.0 °F44.6 °F82 %29.69 in10.0 miSouth (180°)12.7 mph23.0 mphMostly Cloudy
2:35 PM50.0 °F42.8 °F76 %29.69 in10.0 miSouth (180°)13.8 mph23.0 mphScattered Clouds
2:55 PM50.0 °F42.8 °F76 %29.69 in9.0 miSouth (180°)12.7 mph23.0 mphPartly Cloudy
3:15 PM50.0 °F41.0 °F71 %29.71 in10.0 miSouth (190°)11.5 mph20.7 mphMostly Cloudy
3:35 PM48.2 °F41.0 °F76 %29.71 in10.0 miSouth (170°)9.2 mph21.9 mphMostly Cloudy
3:55 PM50.0 °F42.8 °F76 %29.71 in10.0 miSouth (180°)10.4 mph16.1 mphMostly Cloudy
4:15 PM50.0 °F42.8 °F76 %29.71 in10.0 miSouth (180°)8.1 mph16.1 mphMostly Cloudy
4:35 PM51.8 °F42.8 °F71 %29.71 in10.0 miSouth (190°)10.4 mph17.3 mphScattered Clouds
4:55 PM51.8 °F44.6 °F76 %29.70 in10.0 miSouth (180°)9.2 mph17.3 mphPartly Cloudy
5:15 PM51.8 °F44.6 °F76 %29.70 in10.0 miSouth (180°)9.2 mph18.4 mphClear
5:35 PM51.8 °F42.8 °F71 %29.70 in10.0 miSouth (190°)10.4 mph20.7 mphPartly Cloudy
5:55 PM51.8 °F42.8 °F71 %29.70 in10.0 miSouth (170°)5.8 mphPartly Cloudy
6:15 PM50.0 °F42.8 °F76 %29.70 in10.0 miSouth (180°)5.8 mphPartly Cloudy
6:35 PM50.0 °F42.8 °F76 %29.70 in10.0 miSouth (170°)5.8 mphScattered Clouds
6:55 PM50.0 °F42.8 °F76 %29.70 in10.0 miSouth (170°)4.6 mphPartly Cloudy
7:15 PM50.0 °F42.8 °F76 %29.70 in10.0 miSouth (180°)6.9 mphPartly Cloudy
7:35 PM50.0 °F42.8 °F76 %29.70 in10.0 miSSW (200°)9.2 mphPartly Cloudy
7:55 PM48.2 °F44.6 °F87 %29.70 in5.0 miSouth (180°)9.2 mphRainLight Rain
8:15 PM48.2 °F44.6 °F87 %29.71 in3.0 miSouth (180°)4.6 mphRainRain
8:35 PM46.4 °F44.6 °F93 %29.70 in9.0 miCalmMostly Cloudy
8:55 PM46.4 °F44.6 °F93 %29.71 in10.0 miCalmPartly Cloudy
9:15 PM46.4 °F44.6 °F93 %29.71 in10.0 miSouth (170°)5.8 mphScattered Clouds
9:35 PM46.4 °F44.6 °F93 %29.72 in10.0 miSouth (170°)5.8 mphMostly Cloudy
9:55 PM46.4 °F44.6 °F93 %29.72 in10.0 miSouth (170°)8.1 mphScattered Clouds
10:15 PM46.4 °F42.8 °F87 %29.72 in10.0 miSouth (180°)6.9 mph17.3 mphPartly Cloudy
10:35 PM46.4 °F42.8 °F87 %29.73 in10.0 miSouth (170°)5.8 mphPartly Cloudy
10:55 PM46.4 °F44.6 °F93 %29.73 in8.0 miSouth (170°)3.5 mphRainLight Rain
11:15 PM46.4 °F44.6 °F93 %29.74 in10.0 miSouth (190°)9.2 mphMostly Cloudy
11:35 PM46.4 °F44.6 °F93 %29.75 in8.0 miSouth (170°)5.8 mphRainLight Rain
11:55 PM46.4 °F44.6 °F93 %29.75 in10.0 miSSW (210°)8.1 mphOvercast
Hourly data recorded from CZBB, located miles away from Vancouver, British Columbia







STORIES FROM OUR PARTNERS